Poplar Bluff, MO

2:21 AM CDT on July 24, 2019 (GMT -0500)
Poplar Bluff Municipal

Weather History for KPOF - May, 2019

Change the Weather History Date:

Wednesday, May 1, 2019

  Actual Average Record
Temperature  
Mean Temperature 68 °F -  
Max Temperature 73 °F 76 °F 92 °F (1959)
Min Temperature 62 °F 53 °F 34 °F (1963)
Cooling Degree Days 2    
Growing Degree Days 18 (Base 50)    
Moisture  
Dew Point 63 °F    
Average Humidity 88    
Maximum Humidity 100    
Minimum Humidity 66    
Precipitation  
Precipitation 0.48 in - - ()
Sea Level Pressure  
Sea Level Pressure 30.01 in    
Wind  
Wind Speed 10 mph (SSW)    
Max Wind Speed 17 mph    
Max Gust Speed 34 mph    
Visibility 9 miles    
Events Rain    
Averages and records for this station are not official NWS values.
T = Trace of Precipitation, MM = Missing Value Source: NWS Daily Summary

Daily Weather History Graph

Daily Weather History Graph

Search for Another Location

Airport or City:

Astronomy

May. 01, 2019 Rise Set
Actual Time 6:07 AM CDT 7:49 PM CDT
Civil Twilight 5:39 AM CDT 8:17 PM CDT
Nautical Twilight 5:06 AM CDT 8:51 PM CDT
Astronomical Twilight 4:30 AM CDT 9:26 PM CDT
Moon 4:44 AM CDT (5/1) 4:45 PM CDT (5/1)
Length of Visible Light 14h 37m
Length of Day
13h 42m
Waning Crescent, 10% of the Moon is Illuminated
May 1
Waning Crescent
May 4
New
May 11
First Quarter
May 18
Full
May 26
Last Quarter

Hourly Weather History & Observations

Time (CDT) Temp. Dew Point Humidity Pressure Visibility Wind Dir Wind Speed Gust Speed Precip Events Conditions
12:53 AM 73.9 °F 62.1 °F 66% 29.89 in 10.0 mi South 16.1 mph 27.6 mph N/A   Clear
1:53 AM 73.0 °F 62.1 °F 68% 29.92 in 10.0 mi SW 9.2 mph - N/A   Overcast
2:53 AM 72.0 °F 62.1 °F 71% 29.91 in 10.0 mi SSW 10.4 mph - N/A   Overcast
3:53 AM 72.0 °F 62.1 °F 71% 29.92 in 10.0 mi SW 6.9 mph - N/A   Overcast
4:53 AM 63.0 °F 62.1 °F 97% 30.00 in 1.8 mi NW 17.3 mph 34.5 mph 0.02 in Rain Heavy Rain
5:05 AM 62.1 °F 61.0 °F 96% 30.01 in 2.0 mi NW 12.7 mph 21.9 mph 0.27 in Rain Rain
5:13 AM 62.1 °F 61.0 °F 96% 30.01 in 7.0 mi WNW 8.1 mph 18.4 mph 0.27 in Rain Light Rain
5:53 AM 62.1 °F 62.1 °F 100% 30.01 in 9.0 mi South 3.5 mph - 0.30 in Rain Light Rain
6:53 AM 62.1 °F 61.0 °F 96% 29.96 in 10.0 mi SE 11.5 mph - 0.01 in   Overcast
7:53 AM 62.1 °F 62.1 °F 100% 30.02 in 7.0 mi South 9.2 mph - 0.00 in Rain Light Rain
8:53 AM 63.0 °F 62.1 °F 97% 30.01 in 10.0 mi South 5.8 mph - 0.01 in Rain Light Rain
9:53 AM 63.0 °F 62.1 °F 97% 30.05 in 9.0 mi SW 10.4 mph - 0.02 in Rain Light Rain
10:53 AM 63.0 °F 62.1 °F 97% 30.06 in 10.0 mi SSW 13.8 mph 19.6 mph 0.04 in Rain Light Rain
11:53 AM 63.0 °F 62.1 °F 97% 30.06 in 5.0 mi SSW 10.4 mph - 0.03 in Rain Light Rain
12:53 PM 64.0 °F 63.0 °F 96% 30.04 in 9.0 mi South 12.7 mph 19.6 mph 0.04 in Rain Light Rain
1:53 PM 66.9 °F 64.0 °F 90% 30.01 in 10.0 mi West 11.5 mph 20.7 mph 0.01 in Rain Light Rain
2:10 PM 68.0 °F 64.9 °F 90% 30.05 in 10.0 mi West 8.1 mph - 0.00 in   Mostly Cloudy
2:30 PM 68.0 °F 63.0 °F 84% 30.04 in 10.0 mi Variable 4.6 mph - 0.00 in   Mostly Cloudy
2:53 PM 69.1 °F 64.0 °F 84% 30.03 in 10.0 mi SW 5.8 mph - 0.00 in   Mostly Cloudy
3:10 PM 69.1 °F 63.0 °F 81% 30.03 in 10.0 mi South 4.6 mph - N/A   Scattered Clouds
3:53 PM 70.0 °F 64.0 °F 81% 30.02 in 10.0 mi SW 6.9 mph - N/A   Partly Cloudy
4:53 PM 69.1 °F 63.0 °F 81% 30.00 in 10.0 mi SW 3.5 mph - N/A   Clear
5:53 PM 71.1 °F 64.0 °F 78% 30.01 in 10.0 mi SSW 6.9 mph - N/A   Clear
6:53 PM 69.1 °F 63.0 °F 81% 30.01 in 10.0 mi SSW 6.9 mph - N/A   Clear
7:53 PM 68.0 °F 64.0 °F 87% 30.05 in 10.0 mi SSW 3.5 mph - N/A   Overcast
8:53 PM 64.0 °F 64.0 °F 100% 30.05 in 10.0 mi Calm Calm - N/A   Partly Cloudy
9:53 PM 64.9 °F 64.0 °F 97% 30.06 in 10.0 mi SSE 4.6 mph - N/A   Mostly Cloudy
10:53 PM 66.0 °F 64.0 °F 93% 30.07 in 10.0 mi South 4.6 mph - N/A   Mostly Cloudy
11:53 PM 64.9 °F 63.0 °F 93% 30.05 in 10.0 mi SSE 3.5 mph - N/A   Mostly Cloudy